This demonstration page uses our WeatherBlox Daily Observations layout. Learn more.

Left ArrowRight Arrow

Hourly Observations for December 7, 2022

Temp ( °F °C ) Dew Point ( °F °C ) Humidity (%) Winds ( mph kmh ) Pressure ( in mb ) Visibility ( mi km ) Precip ( " mm )
12:53 am 00:53 Cloudy 68 20 66 18.9 93 93 SSW 5 7 30.21 1023 9 14 0.00 0.00
1:53 am 01:53 Cloudy 68 20 65 18.3 90 90 SSW 7 11 30.22 1023 8 13 0.00 0.00
2:53 am 02:53 Cloudy 68 20 65 18.3 90 90 S 7 11 30.22 1023 8 13 0.00 0.00
3:21 am 03:21 Cloudy 68 20 66 18.9 93 93 SSW 6 9 30.23 1024 7 11 0.00 0.00
3:53 am 03:53 Cloudy with Mist and Fog 68 20 66 18.9 93 93 SSW 3 6 30.23 1024 6 10 0.00 0.00
4:53 am 04:53 Cloudy 68 20 66 18.9 93 93 SW 3 6 30.24 1024 7 11 0.00 0.00
5:53 am 05:53 Cloudy with Mist and Fog 68 20 66 18.9 93 93 SSW 5 7 30.25 1025 6 10 0.00 0.00
6:46 am 06:46 Cloudy with Mist and Fog 68 20 66 18.9 93 93 S 3 6 30.28 1025 2 3 0.00 0.00
6:53 am 06:53 Cloudy with Mist and Fog 68 20 66 18.9 93 93 S 6 9 30.27 1025 1 2 0.00 0.00
7:02 am 07:02 Cloudy with Fog 67 19.4 66 18.9 97 97 S 7 11 30.28 1025 1 1 0.00 0.00
7:36 am 07:36 Cloudy with Mist and Fog 68 20 66 18.9 93 93 SSW 5 7 30.28 1026 1 2 0.00 0.00
7:49 am 07:49 Cloudy with Mist and Fog 68 20 66 19 94 94 SSW 5 7 30.30 1026 3 4 0.00 0.00
8:01 am 08:01 Cloudy with Mist and Fog 68 20 66 18.9 93 93 SSW 3 6 30.30 1026 3 5 0.00 0.00
8:09 am 08:09 Cloudy with Mist and Fog 68 20 66 18.9 93 93 VRB 5 7 30.30 1026 2 3 0.00 0.00
8:20 am 08:20 Cloudy with Mist and Fog 68 20 66 18.9 93 93 SW 5 7 30.31 1027 2 2 0.00 0.00
8:34 am 08:34 Cloudy with Mist and Fog 69 20.6 67 19.4 93 93 SW 6 9 30.31 1027 3 4 0.00 0.00
8:42 am 08:42 Cloudy with Mist and Fog 69 20.6 67 19.4 93 93 SSW 6 9 30.30 1026 4 6 0.00 0.00
8:53 am 08:53 Cloudy 70 21.1 67 19.4 90 90 W 6 9 30.31 1027 7 11 0.00 0.00
9:20 am 09:20 Cloudy 71 21.7 67 19.4 87 87 VRB 5 7 30.32 1027 10 16 0.00 0.00
9:37 am 09:37 Cloudy 72 22.2 67 19.4 84 84 VRB 7 11 30.32 1027 10 16 0.00 0.00
9:53 am 09:53 Cloudy 72 22.2 66 18.9 82 82 W 5 7 30.33 1027 10 16 0.00 0.00
10:06 am 10:06 Cloudy 72 22.2 66 18.9 82 82 WSW 7 11 30.33 1027 10 16 0.00 0.00
10:53 am 10:53 Mostly Cloudy 73 22.8 66 18.9 79 79 W 6 9 30.32 1027 10 16 0.00 0.00
11:06 am 11:06 Mostly Sunny 77 25 67 19.4 71 71 W 7 11 30.31 1026 10 16 0.00 0.00
11:53 am 11:53 Mostly Cloudy 78 25.6 65 18.3 64 64 SW 8 13 30.29 1026 10 16 0.00 0.00
12:19 pm 12:19 Partly Cloudy 78 25.6 64 17.8 62 62 W 9 15 30.28 1025 10 16 0.00 0.00
12:53 pm 12:53 Mostly Sunny 78 25.6 63 17.2 60 60 SW 9 15 30.27 1025 10 16 0.00 0.00
1:53 pm 13:53 Partly Cloudy 81 27.2 62 16.7 53 53 WSW 9 15 30.25 1024 10 16 0.00 0.00
2:53 pm 14:53 Partly Cloudy 82 27.8 62 16.7 51 51 VRB 6 9 30.25 1024 10 16 0.00 0.00
3:53 pm 15:53 Mostly Sunny 79 26.1 61 16.1 54 54 SW 5 7 30.25 1024 10 16 0.00 0.00
4:53 pm 16:53 Clear 73 22.8 62 16.7 68 68 Calm 30.25 1024 10 16 0.00 0.00
5:53 pm 17:53 Clear 67 19.4 62 16.7 84 84 Calm 30.26 1025 10 16 0.00 0.00
6:53 pm 18:53 Clear 64 17.8 62 16.7 93 93 Calm 30.27 1025 9 14 0.00 0.00
7:34 pm 19:34 Mostly Clear with Mist and Fog 63 17.2 60 15.6 90 90 Calm 30.29 1026 2 3 0.00 0.00
7:42 pm 19:42 Mostly Clear with Mist and Fog 63 17.2 60 15.6 90 90 Calm 30.29 1026 4 6 0.00 0.00
7:53 pm 19:53 Mostly Clear 62 16.7 60 15.6 93 93 Calm 30.28 1025 10 16 0.00 0.00
8:00 pm 20:00 Mostly Clear with Mist and Fog 62 16.7 60 15.6 93 93 Calm 30.29 1026 2 3 0.00 0.00
8:11 pm 20:11 Mostly Clear with Mist and Fog 62 16.7 60 15.6 93 93 Calm 30.29 1026 1 1 0.00 0.00
8:53 pm 20:53 Mostly Clear with Mist and Fog 60 15.6 58 14.4 93 93 Calm 30.28 1025 1 1 0.00 0.00
8:55 pm 20:55 Mostly Clear with Mist and Fog 60 15.6 58 14.4 93 93 Calm 30.29 1026 1 2 0.00 0.00
9:03 pm 21:03 Mostly Clear with Mist and Fog 59 15 57 13.9 93 93 Calm 30.29 1026 6 10 0.00 0.00
9:11 pm 21:11 Mostly Clear with Mist and Fog 60 15.6 57 13.9 90 90 Calm 30.29 1026 2 2 0.00 0.00
9:14 pm 21:14 Mostly Clear with Mist and Fog 60 15.6 58 14.4 93 93 Calm 30.29 1026 1 1 0.00 0.00
9:31 pm 21:31 Partly Cloudy with Mist and Fog 59 15 57 13.9 93 93 Calm 30.29 1026 2 2 0.00 0.00
9:33 pm 21:33 Mostly Clear with Mist and Fog 59 15 57 13.9 93 93 Calm 30.29 1026 3 5 0.00 0.00
9:48 pm 21:48 Mostly Cloudy with Mist and Fog 59 15 57 14 94 94 Calm 30.28 1025 5 8 0.00 0.00
9:53 pm 21:53 Mostly Cloudy with Mist and Fog 59 15 57 13.9 93 93 Calm 30.28 1025 4 6 0.00 0.00
9:56 pm 21:56 Mostly Cloudy with Mist and Fog 59 15 57 13.9 93 93 Calm 30.29 1026 2 2 0.00 0.00
10:08 pm 22:08 Cloudy with Mist and Fog 58 14.4 57 13.9 97 97 Calm 30.28 1025 3 5 0.00 0.00
10:14 pm 22:14 Mostly Clear with Mist and Fog 58 14.4 56 13.3 93 93 Calm 30.28 1025 1 1 0.00 0.00
10:23 pm 22:23 Mostly Clear with Fog 58 14.4 56 13.3 93 93 Calm 30.28 1025 0 0 0.00 0.00
10:40 pm 22:40 Mostly Clear with Fog 58 14.4 56 13.3 93 93 Calm 30.28 1025 1 1 0.00 0.00
10:53 pm 22:53 Cloudy with Mist and Fog 58 14.4 56 13.3 93 93 Calm 30.27 1025 4 6 0.00 0.00
11:00 pm 23:00 Cloudy with Mist and Fog 57 13.9 56 13.3 96 96 Calm 30.28 1025 2 2 0.00 0.00
11:10 pm 23:10 Mostly Clear with Mist and Fog 57 13.9 56 13.3 96 96 Calm 30.28 1025 1 1 0.00 0.00
11:41 pm 23:41 Mostly Clear with Fog 57 13.9 55 12.8 93 93 Calm 30.28 1025 0 0 0.00 0.00
11:53 pm 23:53 Mostly Clear with Fog 57 13.9 56 13.3 96 96 Calm 30.27 1025 0 0 0.00 0.00

Powered by AerisWeather